This is the latest recevied weather packets stored in our database for station/object KF4LQQ-13. If no packets are shown the sender has not sent any weather packets the latest 10 day(s).
| Time | Temp. | Humidity | Pressure | Rain* | Wind** | Luminosity | Snow |
|---|---|---|---|---|---|---|---|
| 1777730047 | 26.67° C | - | 1008.6 hPa | 0 mm | - | - | - |
| 1777729963 | 26.67° C | - | 1008.6 hPa | 0 mm | - | - | - |
| 1777729362 | 26.67° C | - | 1008.5 hPa | 0 mm | - | - | - |
| 1777728762 | 26.11° C | - | 1008.2 hPa | 0 mm | - | - | - |
| 1777728162 | 26.11° C | - | 1008.1 hPa | 0 mm | - | - | - |
| 1777727562 | 25.56° C | - | 1008.2 hPa | 0 mm | - | - | - |
| 1777726360 | 23.33° C | - | 1008.2 hPa | 0 mm | - | - | - |
| 1777725760 | 22.78° C | - | 1008.2 hPa | 0 mm | - | - | - |
| 1777725160 | 22.22° C | - | 1008.2 hPa | 0 mm | - | - | - |
| 1777724557 | 21.67° C | - | 1008.2 hPa | 0 mm | - | - | - |
| 1777723956 | 21.67° C | - | 1008.1 hPa | 0 mm | - | - | - |
| 1777723356 | 22.22° C | - | 1007.9 hPa | 0 mm | - | - | - |
| 1777722756 | 22.22° C | - | 1008 hPa | 0 mm | - | - | - |
| 1777722152 | 21.67° C | - | 1007.9 hPa | 0 mm | - | - | - |
| 1777721552 | 21.67° C | - | 1007.9 hPa | 0 mm | - | - | - |
| 1777720951 | 21.11° C | - | 1007.9 hPa | 0 mm | - | - | - |
| 1777720728 | 21.67° C | - | 1007.7 hPa | 0 mm | - | - | - |
| 1777720351 | 21.67° C | - | 1007.7 hPa | 0 mm | - | - | - |
| 1777719753 | 21.67° C | - | 1007.5 hPa | 0 mm | - | - | - |
| 1777718627 | 21.67° C | - | 1007.5 hPa | 0 mm | - | - | - |
| 1777718551 | 21.67° C | - | 1007.5 hPa | 0 mm | - | - | - |
| 1777718020 | 21.67° C | - | 1007.7 hPa | 0 mm | - | - | - |
| 1777717950 | 21.67° C | - | 1007.5 hPa | 0 mm | - | - | - |
| 1777717350 | 21.67° C | - | 1007.7 hPa | 0 mm | - | - | - |
| 1777716750 | 21.67° C | - | 1007.9 hPa | 0 mm | - | - | - |
* Rain since midnight (hover to see other rain measurements)
** Current wind speed in m/s (hover to see current wind gust speed)